Regional Weather Roundup
Issued by NWS

Home | Current Version | Previous Version | Graphics & Text | Print | Product List | Glossary On
Versions: 1 2 3 4 5 6 7 8 9 10 11 12 13 14 15 16 17 18 19 20 21 22 23 24 25 26 27 28 29 30 31 32 33 34 35 36 37 38 39 40 41 42 43 44 45 46 47 48 49 50
000
ASUS43 KOAX 220902
RWRNE

WEATHER ROUNDUP FOR NEBRASKA
NATIONAL WEATHER SERVICE OMAHA NE
400 AM CDT MON SEP 22 2014

NOTES: SATELLITE DATA IS BEING USED TO AUGMENT CLOUD COVER ABOVE
       12000 FEET.
       "FAIR" INDICATES FEW OR NO CLOUDS BELOW 12,000 FEET WITH NO
       SIGNIFICANT WEATHER AND/OR OBSTRUCTIONS TO VISIBILITY.

  * THESE STATIONS DO NOT REPORT WEATHER SUCH AS RAIN...SNOW OR FOG.

NEZ001>004-019>022-054>056-221000-
NEBRASKA PANHANDLE

CITY           SKY/WX    TMP DP  RH WIND       PRES   REMARKS
SCOTTSBLUFF    PTCLDY    57  44  62 SE12      30.21F
ALLIANCE       PTCLDY    53  41  63 SE12      30.23F
CHADRON        PTCLDY    63  41  44 S21G29    30.17F
KIMBALL        MOCLDY    56  41  56 S10       30.24F
SIDNEY         PTCLDY    60  40  47 S12       30.27F
$$

NEZ057>060-069>072-079>082-221000-
SOUTHWEST NEBRASKA

CITY           SKY/WX    TMP DP  RH WIND       PRES   REMARKS
NORTH PLATTE   CLOUDY    50  44  80 E7        30.29F
IMPERIAL       CLOUDY    58  41  53 S9        30.28F
LEXINGTON      CLEAR     46  44  91 CALM      30.29F
MCCOOK         MOCLDY    54  44  69 E5        30.29F
OGALLALA       PTCLDY    54  45  72 E3        30.27F
$$

NEZ005>010-023>029-035>040-094-221000-
NORTH CENTRAL NEBRASKA

CITY           SKY/WX    TMP DP  RH WIND       PRES   REMARKS
VALENTINE      PTCLDY    52  41  66 S6        30.26F
AINSWORTH      CLEAR     45  40  85 S7        30.28F
BROKEN BOW     CLEAR     42  39  89 CALM      30.29F
O`NEILL        CLEAR     47  44  90 S6        30.29F
ORD            CLEAR     41  38  89 CALM      30.29F
THEDFORD       PTCLDY    53  43  68 S7        30.28F
$$

NEZ041-046>049-061>064-073>077-083>087-221000-
SOUTH CENTRAL NEBRASKA

CITY           SKY/WX    TMP DP  RH WIND       PRES   REMARKS
GRAND ISLAND   CLEAR     47  43  86 CALM      30.31S
AURORA         CLEAR     45  43  93 SW3       30.30S
HASTINGS       CLEAR     48  42  80 CALM      30.30S
HEBRON         CLEAR     44  42  92 CALM      30.30S
HOLDREGE       CLEAR     46  41  83 CALM      30.30S
KEARNEY *      CLEAR     48  43  81 CALM      30.30F
YORK           CLEAR     45  45 100 W6        30.30S
$$

NEZ011>018-030>034-042>045-221000-
NORTHEAST NEBRASKA

CITY           SKY/WX    TMP DP  RH WIND       PRES   REMARKS
NORFOLK        CLEAR     41  40  96 CALM      30.29S
ALBION         CLEAR     43  40  89 CALM      30.30S
BLAIR          CLEAR     56  47  71 E3        30.29S
COLUMBUS *     CLEAR     43  39  87 CALM      30.31R
FREMONT        CLEAR     49  47  91 W3        30.29S
TEKAMAH        CLEAR     45  43  93 CALM      30.30R
WAYNE          CLEAR     42  40  95 CALM      30.29S
$$

NEZ050>053-065>068-078-088>093-221000-
SOUTHEAST NEBRASKA

CITY           SKY/WX    TMP DP  RH WIND       PRES   REMARKS
LINCOLN        CLEAR     50  46  86 W3        30.30S
OMAHA EPPLEY   CLEAR     50  48  93 CALM      30.30S
BEATRICE       CLEAR     44  43  96 CALM      30.29S
FALLS CITY     CLEAR     49  47  93 CALM      30.28S
NEBRASKA CITY    N/A     53  43  69 CALM      30.29S
PLATTSMOUTH    CLEAR     51  47  85 CALM      30.29S
$$

NEZ044-045-051>053-067-221000-
OMAHA AREA

CITY           SKY/WX    TMP DP  RH WIND       PRES   REMARKS
OMAHA EPPLEY   CLEAR     50  48  93 CALM      30.30S
BLAIR          CLEAR     56  47  71 E3        30.29S
FREMONT        CLEAR     49  47  91 W3        30.29S
MILLARD        CLEAR     50  49  96 CALM      30.30R
OFFUTT AFB     CLEAR     46  46 100 CALM      30.29S
PLATTSMOUTH    CLEAR     51  47  85 CALM      30.29S
WAHOO          FAIR      46  44  91 CALM      30.29S
$$



USA.gov is the U.S. government's official web portal to all federal, state and local government web resources and services.